Satellite: NOAA-18
Catalog number: 28654
Epoch time:      06250.32372121
Element set:     624
Inclination:      098.7915 deg
RA of node:       191.8584 deg
Eccentricity:    0.0014624
Arg of perigee:   352.3342 deg
Mean anomaly:     007.7615 deg
Mean motion:   14.10990028 rev/day
Decay rate:       3.80e-06 rev/day^2
Epoch rev:            6696
Checksum:              302

/EX
[keps]  orb06250.amsa

Orbital Elements  06250.MISC

HR AMSAT ORBITAL ELEMENTS FOR MANNED AND MISCELLANEOUS SATELLITES
FROM WA5QGD FORT WORTH,TX September 7, 2006
Send SUBSCRIBE KEPS/UNSUBSCRIBE KEPS to majordomo@amsat.org only
BID: ORB06250.M
TO ALL RADIO AMATEURS BT

Satellite: HUBBLE
Catalog number: 20580
Epoch time:      06249.39886175
Element set:    0712
Inclination:      028.4692 deg
RA of node:       240.4648 deg
Eccentricity:    0.0003474
Arg of perigee:   325.8521 deg
Mean anomaly:     034.1846 deg
Mean motion:   15.00087268 rev/day
Decay rate:       4.54e-06 rev/day^2
Epoch rev:           69730
Checksum:              306

Satellite: UARS
Catalog number: 21701
Epoch time:      06249.95350134
Element set:    0866
Inclination:      056.9759 deg
RA of node:       099.8207 deg
Eccentricity:    0.0102037
Arg of perigee:   010.0888 deg
Mean anomaly:     350.2177 deg
Mean motion:   15.44505766 rev/day
Decay rate:      6.505e-05 rev/day^2
Epoch rev:           82193
Checksum:              311

Satellite: PO-34
Catalog number: 25520
Epoch time:      06249.93885905
Element set:    0561
Inclination:      028.4601 deg
RA of node:       204.2085 deg
Eccentricity:    0.0005227
Arg of perigee:   053.0115 deg
Mean anomaly:     307.0957 deg
Mean motion:   15.16781491 rev/day
Decay rate:       7.18e-06 rev/day^2
Epoch rev:           43447
Checksum:              296

Satellite: ISS
Catalog number: 25544
Epoch time:      06250.93043191
Element set:     626
Inclination:      051.6324 deg
RA of node:       121.1990 deg
Eccentricity:    0.0011163
Arg of perigee:   313.9612 deg
Mean anomaly:     167.8171 deg
Mean motion:   15.75700097 rev/day
Decay rate:     1.4962e-04 rev/day^2
Epoch rev:           44621
Checksum:              276

Satellite: OO-38
Catalog number: 26063
Epoch time:      06250.73268566
Element set:     711
Inclination:      100.1903 deg
RA of node:       196.6423 deg
Eccentricity:    0.0036563
Arg of perigee:   234.7487 deg
Mean anomaly:     125.0268 deg
Mean motion:   14.35776136 rev/day
Decay rate:        6.0e-08 rev/day^2
Epoch rev:           34651
Checksum:              300

Satellite: NO-45
Catalog number: 26932
Epoch time:      06249.94280226
Element set:    0415
Inclination:      067.0551 deg
RA of node:       156.8131 deg
Eccentricity:    0.0007231
Arg of perigee:   237.9445 deg
Mean anomaly:     122.0954 deg
Mean motion:   14.29533965 rev/day
Decay rate:       -2.1e-07 rev/day^2
Epoch rev:           25765
Checksum:              301

Satellite: UWE-1
Catalog number: 28892
Epoch time:      06250.60950331
Element set:     545
Inclination:      098.1530 deg
RA of node:       147.4525 deg
Eccentricity:    0.0016517
Arg of perigee:   276.4247 deg
Mean anomaly:     083.5069 deg
Mean motion:   14.59391412 rev/day
Decay rate:       1.49e-06 rev/day^2
Epoch rev:            4599
Checksum:              311

Satellite: CO-58
Catalog number: 28895
Epoch time:      06250.73485969
Element set:     530
Inclination:      098.1507 deg
RA of node:       147.6830 deg
Eccentricity:    0.0017100
Arg of perigee:   275.5760 deg
Mean anomaly:     084.3501 deg
Mean motion:   14.59442163 rev/day
Decay rate:       1.55e-06 rev/day^2
Epoch rev:            4589
Checksum:              324

Satellite: NCUBE2
Catalog number: 28897
Epoch time:      06249.26374724
Element set:     115
Inclination:      098.1525 deg
RA of node:       146.2174 deg
Eccentricity:    0.0016539
Arg of perigee:   282.7486 deg
Mean anomaly:     077.1854 deg
Mean motion:   14.59597696 rev/day
Decay rate:       1.38e-06 rev/day^2
Epoch rev:            3795
Checksum:              353

/EX



_______________________________________________
Via the Keps mailing list courtesy of AMSAT-NA
Keps@amsat.org
http://amsat.org/mailman/listinfo/keps

--- ViaMAIL!/WC v1.60d
 * Origin: Chowdanet (401-724-4410) telnet://chowdanet.com  (1:323/120)